SCP
0 0 0 0 0 0 0 0 0 0 0 1 3 3 2 2 2 2 1 1 1 1 0 0 0 0 0 0 0 0 0 0 0 0 0 0 0 0 0 0 0 0 0
0 0 0 0 0 0 0 0 0 0 0 0 1 1 1 2 2 2 2 1 1 2 1 0 0 0 0 0 0 0 0 0 0 0 0 0 0 0 0 0 0 0 0
0 0 0 0 0 0 0 0 0 0 0 0 1 0 0 0 1 1 1 1 1 2 2 1 1 0 0 0 0 0 0 0 0 0 0 0 0 0 0 0 0 0 0
0 -0 -0 0 0 0 0 0 0 0 0 1 3 2 2 2 1 1 1 1 0 1 2 2 1 1 0 0 0 0 0 0 0 0 0 0 0 0 0 0 0 0 0
0 0 0 0 0 0 0 0 0 0 0 0 2 3 2 1 0 0 0 0 0 1 2 2 1 1 1 0 0 0 0 0 0 0 0 0 0 0 0 0 0 0 0
0 0 0 0 -0 -0 0 0 0 0 0 0 1 2 1 0 0 0 0 0 0 1 2 1 1 1 1 0 0 0 0 0 0 0 0 0 0 0 0 0 0 0 0
0 0 0 0 0 -0 0 0 0 0 0 0 0 0 0 0 0 0 0 0 1 1 1 1 1 1 1 1 0 0 0 0 0 0 0 0 0 0 0 0 0 0 0
0 0 0 0 0 0 -0 -0 0 0 0 0 0 0 0 0 0 0 0 0 1 1 1 1 1 1 1 1 0 0 0 0 0 0 0 0 0 0 0 0 0 0 0
0 0 -0 0 0 0 0 0 0 0 0 0 0 0 0 0 0 0 1 1 1 1 1 1 1 1 1 0 0 0 0 0 0 0 0 0 0 0 0 0 0 0 0
0 0 -0 0 0 0 0 0 0 0 0 0 0 0 0 0 0 1 1 1 1 1 1 0 0 0 1 0 0 0 0 0 0 0 0 0 0 0 0 0 0 0 0
0 0 0 0 0 0 0 0 0 0 0 0 0 0 0 0 1 1 1 1 1 1 1 0 0 0 0 0 0 0 0 0 0 0 0 0 0 0 0 0 0 0 0
0 0 0 0 0 0 0 0 0 0 0 0 0 0 0 1 1 1 1 1 1 1 1 0 1 0 0 0 0 0 0 0 0 0 0 0 0 0 0 0 0 0 0
0 -0 0 0 0 0 0 0 0 1 0 0 0 1 1 1 1 1 1 1 1 1 1 1 1 0 0 0 0 0 0 0 0 0 0 0 0 0 0 0 0 0 0
-0 -0 0 0 0 -0 0 0 0 2 1 1 1 2 2 1 1 1 1 1 1 1 1 0 0 0 0 0 0 0 0 0 0 0 0 0 0 0 0 0 0 0 0
0 -0 0 0 0 -0 0 0 0 1 3 2 2 3 3 2 2 1 1 1 1 0 0 0 0 0 0 0 0 0 0 0 0 0 0 0 0 0 0 0 0 0 0
-0 -0 0 0 0 0 0 0 0 0 4 2 2 2 2 2 1 1 1 0 0 0 0 0 0 0 0 0 0 0 0 0 0 0 0 0 0 0 0 0 0 0 0
-0 -0 0 0 0 0 0 0 0 0 1 2 1 1 1 1 0 0 0 0 0 0 0 0 0 0 0 0 0 0 0 0 0 0 0 0 0 0 0 0 0 0 0
0 -0 0 0 0 0 0 0 0 0 1 1 1 1 1 0 0 0 0 0 0 0 0 0 0 0 0 0 0 0 0 0 0 0 0 0 0 0 0 0 0 0 0
0 -0 0 0 0 0 0 0 0 0 1 1 1 1 0 0 0 0 0 0 0 0 0 0 0 0 0 0 0 0 0 0 0 0 0 0 0 0 0 0 0 0 0
0 0 0 0 0 0 0 0 0 0 1 1 1 0 0 0 0 0 0 0 0 0 0 0 0 0 0 0 0 0 0 0 0 0 0 -0 -0 -0 -0 0 0 0 0
-0 -0 0 0 0 0 0 -0 0 0 1 0 0 0 0 0 0 0 0 0 0 0 0 0 0 0 0 0 0 0 0 0 0 0 0 -0 -0 -0 0 0 0 0 0
-0 0 0 0 0 -0 -0 0 0 0 0 0 0 0 0 0 0 0 0 0 0 0 0 0 0 0 0 0 0 0 0 0 0 0 0 0 0 0 0 0 0 -0 0
-0 0 0 0 -0 -0 -0 0 0 0 0 0 0 0 0 0 0 0 0 0 0 0 0 0 0 0 0 0 0 0 0 0 0 0 0 -0 0 0 0 0 -0 0 0
0 0 0 -0 -0 0 0 0 0 0 0 0 0 0 0 0 0 0 0 0 0 0 0 0 0 0 0 0 0 0 0 0 0 -0 0 0 0 0 0 0 0 0 0
-0 -0 0 0 0 0 0 0 0 0 0 0 0 0 0 0 0 0 0 0 0 0 0 0 0 0 0 0 -0 -0 0 0 -0 -0 0 0 0 0 0 0 0 0 0
-0 0 0 0 0 0 0 0 -0 0 0 0 0 0 0 0 0 0 0 -0 0 0 0 0 0 0 -0 -0 -0 -0 -0 -0 -0 0 0 0 0 0 0 0 0 0 0
Wind_Speed_500mb
54 51 48 37 29 44 59 55 64 76 81 91 91 89 94 91 80 71 69 69 61 53 63 68 61 57 60 53 51 51 47 47 37 42 45 39 39 43 39 40 40 44 43
60 53 53 46 37 35 49 67 69 68 97 105 100 92 83 82 74 74 77 78 65 60 63 67 62 59 57 46 54 55 48 46 43 46 44 38 37 39 40 44 49 48 46
67 68 62 57 53 42 41 50 72 75 72 89 108 98 97 93 90 90 83 77 67 59 65 69 63 59 50 45 52 51 47 44 39 46 39 17 22 22 27 38 39 34 33
58 62 61 62 60 56 49 47 53 64 76 71 104 106 103 104 95 93 75 69 58 59 62 64 59 55 46 47 46 45 43 41 46 43 51 52 40 20 12 23 16 22 28
39 54 57 62 66 65 61 53 48 54 71 75 94 105 110 108 102 84 76 60 60 60 61 65 63 51 46 45 44 43 43 40 45 48 49 50 48 45 42 36 33 22 22
45 45 51 59 68 70 70 64 53 53 56 76 77 98 113 111 103 86 73 64 66 63 59 66 62 47 45 44 44 44 38 38 39 43 45 45 41 43 44 42 32 26 25
50 53 54 56 63 69 71 70 60 54 50 62 79 81 98 106 94 82 69 66 64 57 53 58 48 44 44 41 41 42 39 40 35 37 35 37 34 37 29 25 26 27 27
56 61 64 57 57 60 68 71 71 62 54 56 68 66 70 84 81 73 67 66 62 49 44 39 38 42 40 40 34 34 38 36 33 33 32 30 32 30 27 27 27 28 29
67 74 78 61 51 54 58 62 70 68 56 62 70 76 75 77 76 72 69 70 57 50 35 30 40 41 38 32 36 36 36 34 34 28 29 26 28 29 27 26 25 29 25
70 77 80 60 43 47 51 51 60 63 55 63 73 81 80 77 75 74 70 67 58 48 37 37 43 39 37 34 39 36 35 34 31 28 29 28 26 27 27 26 24 23 20
68 65 73 59 37 45 42 45 45 54 50 60 80 86 89 82 74 71 63 60 53 45 43 42 43 40 38 41 40 36 29 29 29 29 29 27 26 25 26 25 24 24 23
56 71 80 53 47 48 46 42 36 36 41 57 74 83 83 76 63 54 48 45 48 46 46 44 45 40 43 43 36 35 30 27 27 27 28 27 25 26 27 25 26 22 20
62 71 88 67 58 49 53 44 30 23 32 40 59 64 60 55 51 46 42 48 50 46 47 47 46 46 40 37 35 25 22 23 20 23 25 27 29 31 30 26 26 25 23
51 63 77 67 46 43 50 61 31 17 28 38 47 57 56 54 47 41 46 50 46 49 50 49 51 46 38 30 25 25 25 21 19 20 23 27 30 31 31 27 27 28 26
44 55 75 81 55 42 51 61 42 19 15 42 53 54 53 45 40 45 45 45 52 52 55 53 49 41 30 26 28 27 27 25 25 25 27 29 32 34 32 29 28 30 28
36 37 72 72 59 54 59 73 42 27 22 42 53 49 44 43 48 52 52 53 57 57 57 53 44 38 31 27 26 26 28 28 28 30 33 33 32 35 35 31 31 29 32
49 65 74 67 69 52 62 74 39 25 37 47 44 42 44 50 54 55 58 62 59 61 53 43 38 36 33 30 27 26 26 25 26 28 26 28 25 29 32 34 34 32 32
62 70 64 65 69 53 56 70 39 31 44 52 49 50 54 57 58 60 60 67 62 50 50 40 39 35 30 28 26 22 20 20 21 22 26 25 24 24 23 23 33 32 29
66 66 65 61 64 41 49 54 25 29 51 56 56 61 62 65 56 61 66 62 66 51 44 44 39 31 29 25 21 20 19 18 16 16 23 24 25 25 20 27 28 25 30
71 67 56 52 44 40 44 36 32 19 50 60 67 69 70 59 56 65 62 55 50 48 49 39 32 27 23 23 22 21 18 16 16 15 20 23 27 25 20 28 28 32 31
73 54 47 42 41 44 43 34 22 20 36 64 71 69 67 61 61 61 58 55 54 46 40 34 29 24 22 21 18 16 14 13 19 21 22 22 26 24 22 25 34 29 31
63 53 50 42 45 38 38 31 39 40 20 59 68 71 59 63 66 63 57 52 45 41 38 32 28 27 24 19 17 17 14 14 17 20 24 22 20 24 26 28 27 28 29
65 53 49 45 37 27 34 32 49 49 22 58 64 62 66 66 60 62 57 50 44 42 38 32 30 30 25 22 21 22 17 15 19 22 27 26 28 34 33 27 22 16 19
63 51 43 36 24 9 16 38 57 53 57 72 70 71 67 63 62 48 51 47 46 42 37 33 32 29 28 25 25 24 20 21 26 29 32 33 34 36 32 28 20 16 16
59 48 43 34 25 21 38 42 77 51 77 68 65 65 60 62 59 52 48 41 38 35 33 24 19 21 26 24 17 7 18 27 31 35 35 41 39 36 32 26 19 14 17
52 42 16 26 23 13 45 65 75 78 70 64 57 61 59 65 56 48 47 41 37 34 22 16 13 14 17 23 17 16 21 31 34 36 41 38 35 28 27 22 15 15 17
Wind_Direction_500mb
323 321 323 327 318 269 252 239 243 243 232 225 229 241 245 247 249 239 250 257 258 260 263 270 272 277 283 283 279 267 263 263 259 254 258 263 253 246 252 251 267 277 274
317 323 321 312 314 310 265 261 249 248 241 236 240 235 237 243 244 242 247 257 260 260 262 267 269 277 278 279 271 262 257 259 250 249 258 261 256 250 251 260 269 275 269
310 311 313 310 303 303 307 285 267 254 249 247 237 230 234 238 238 240 246 250 252 258 262 264 268 270 266 271 267 258 253 260 252 245 237 234 235 243 259 270 267 266 266
302 302 301 299 291 289 291 296 281 261 247 246 232 231 235 238 247 248 248 249 252 261 263 263 264 256 255 264 261 253 250 252 247 244 240 240 252 253 258 267 248 273 276
308 302 300 297 291 291 292 289 293 269 250 244 237 238 238 243 247 247 245 246 253 258 262 261 256 255 249 258 250 244 247 246 241 240 243 245 249 254 251 261 279 283 285
316 320 309 298 291 289 284 280 285 278 259 248 248 240 238 242 242 238 240 245 250 255 263 261 257 248 243 248 246 241 237 235 241 243 247 251 243 253 258 261 267 277 278
320 317 317 312 301 295 288 279 281 282 263 258 244 243 237 242 239 235 243 248 252 258 270 265 250 236 241 244 240 239 224 228 235 240 249 248 248 251 257 257 265 270 279
319 326 322 311 303 298 290 284 275 276 260 259 243 232 231 232 234 241 250 255 255 260 269 260 242 237 241 240 229 219 222 227 231 240 247 240 238 253 256 261 259 267 273
317 317 319 305 300 296 292 288 277 272 256 244 243 230 228 234 242 249 253 254 252 253 250 239 237 236 244 247 210 223 226 219 225 239 237 237 240 247 251 250 256 266 262
314 317 314 299 302 299 301 290 275 270 249 233 235 231 237 242 248 251 252 254 248 243 232 231 229 235 236 224 215 225 210 217 222 228 234 239 246 248 244 247 256 243 253
314 321 322 306 310 324 319 304 277 264 248 234 230 234 236 244 246 248 251 248 236 233 225 225 229 228 216 204 214 208 208 212 223 232 237 241 241 239 241 246 240 245 247
308 329 330 312 313 333 331 318 277 265 244 232 232 235 240 240 239 236 234 228 227 222 222 223 219 206 199 205 207 201 206 219 231 234 236 229 231 232 237 246 238 240 234
318 336 328 317 312 340 338 329 284 267 239 233 224 224 225 226 223 223 226 220 218 218 216 214 203 195 195 197 194 206 220 230 228 231 229 227 232 234 238 238 236 228 225
327 332 328 324 308 348 346 339 301 261 230 230 224 213 216 216 215 225 220 210 214 207 204 192 187 188 189 196 206 210 203 207 225 232 229 231 234 234 235 230 229 219 221
348 333 320 329 322 344 347 336 320 278 247 227 213 210 205 205 216 208 199 196 199 194 184 180 184 183 182 185 188 200 215 227 234 237 237 237 236 234 228 224 223 216 212
330 320 315 333 333 344 344 342 318 284 237 213 199 195 198 204 197 183 186 187 181 178 174 171 179 179 187 199 205 222 234 235 246 249 243 237 232 227 219 219 219 217 213
323 317 316 324 337 329 337 335 314 259 206 208 212 214 214 200 189 187 180 176 178 169 168 169 179 190 197 199 217 223 237 245 244 241 228 216 224 222 221 222 223 212 212
317 315 310 316 331 325 325 322 300 274 214 219 217 217 204 185 178 179 178 172 166 173 168 177 187 186 195 209 220 230 231 230 233 231 212 220 219 226 213 210 197 203 204
304 302 306 312 322 312 321 312 275 241 205 209 211 205 189 168 163 169 169 171 165 169 176 180 183 197 206 216 219 216 213 223 222 218 202 201 198 192 196 178 178 186 189
302 308 307 305 310 311 309 289 247 310 198 199 201 188 169 163 166 163 164 167 168 170 174 178 185 199 213 203 204 201 217 215 209 185 165 173 182 184 184 182 185 186 187
306 307 303 300 306 302 290 260 235 145 187 203 192 175 163 158 164 165 165 164 166 170 175 183 190 197 192 199 194 193 198 191 195 179 171 171 174 179 179 183 177 184 176
304 310 313 312 309 308 276 248 207 145 157 167 175 157 159 161 164 162 164 168 178 182 182 187 187 185 185 192 178 168 162 168 184 179 173 166 169 166 156 155 161 178 187
303 308 311 307 323 320 262 222 183 203 215 165 152 154 160 160 164 166 167 177 183 186 185 187 191 185 182 182 177 178 178 172 185 176 171 167 159 146 150 153 164 189 185
298 304 311 321 316 337 183 165 173 170 160 162 153 157 163 165 166 174 178 182 185 188 186 188 189 187 182 176 173 183 187 182 179 174 169 164 164 160 161 159 165 167 179
294 302 312 312 304 277 268 160 179 179 168 159 163 165 169 170 170 175 182 189 190 187 182 185 178 181 183 170 173 198 175 175 172 177 164 161 158 157 164 167 171 182 194
297 301 297 279 290 92 157 165 171 168 166 166 167 169 173 172 175 181 179 182 180 180 177 158 131 136 162 164 170 162 159 157 160 164 167 160 166 167 172 179 188 182 188
Wind_Speed_850mb
54 51 48 37 29 44 59 55 64 76 81 91 91 89 94 91 80 71 69 69 61 53 63 68 61 57 60 53 51 51 47 47 37 42 45 39 39 43 39 40 40 44 43
60 53 53 46 37 35 49 67 69 68 97 105 100 92 83 82 74 74 77 78 65 60 63 67 62 59 57 46 54 55 48 46 43 46 44 38 37 39 40 44 49 48 46
67 68 62 57 53 42 41 50 72 75 72 89 108 98 97 93 90 90 83 77 67 59 65 69 63 59 50 45 52 51 47 44 39 46 39 17 22 22 27 38 39 34 33
58 62 61 62 60 56 49 47 53 64 76 71 104 106 103 104 95 93 75 69 58 59 62 64 59 55 46 47 46 45 43 41 46 43 51 52 40 20 12 23 16 22 28
39 54 57 62 66 65 61 53 48 54 71 75 94 105 110 108 102 84 76 60 60 60 61 65 63 51 46 45 44 43 43 40 45 48 49 50 48 45 42 36 33 22 22
45 45 51 59 68 70 70 64 53 53 56 76 77 98 113 111 103 86 73 64 66 63 59 66 62 47 45 44 44 44 38 38 39 43 45 45 41 43 44 42 32 26 25
50 53 54 56 63 69 71 70 60 54 50 62 79 81 98 106 94 82 69 66 64 57 53 58 48 44 44 41 41 42 39 40 35 37 35 37 34 37 29 25 26 27 27
56 61 64 57 57 60 68 71 71 62 54 56 68 66 70 84 81 73 67 66 62 49 44 39 38 42 40 40 34 34 38 36 33 33 32 30 32 30 27 27 27 28 29
67 74 78 61 51 54 58 62 70 68 56 62 70 76 75 77 76 72 69 70 57 50 35 30 40 41 38 32 36 36 36 34 34 28 29 26 28 29 27 26 25 29 25
70 77 80 60 43 47 51 51 60 63 55 63 73 81 80 77 75 74 70 67 58 48 37 37 43 39 37 34 39 36 35 34 31 28 29 28 26 27 27 26 24 23 20
68 65 73 59 37 45 42 45 45 54 50 60 80 86 89 82 74 71 63 60 53 45 43 42 43 40 38 41 40 36 29 29 29 29 29 27 26 25 26 25 24 24 23
56 71 80 53 47 48 46 42 36 36 41 57 74 83 83 76 63 54 48 45 48 46 46 44 45 40 43 43 36 35 30 27 27 27 28 27 25 26 27 25 26 22 20
62 71 88 67 58 49 53 44 30 23 32 40 59 64 60 55 51 46 42 48 50 46 47 47 46 46 40 37 35 25 22 23 20 23 25 27 29 31 30 26 26 25 23
51 63 77 67 46 43 50 61 31 17 28 38 47 57 56 54 47 41 46 50 46 49 50 49 51 46 38 30 25 25 25 21 19 20 23 27 30 31 31 27 27 28 26
44 55 75 81 55 42 51 61 42 19 15 42 53 54 53 45 40 45 45 45 52 52 55 53 49 41 30 26 28 27 27 25 25 25 27 29 32 34 32 29 28 30 28
36 37 72 72 59 54 59 73 42 27 22 42 53 49 44 43 48 52 52 53 57 57 57 53 44 38 31 27 26 26 28 28 28 30 33 33 32 35 35 31 31 29 32
49 65 74 67 69 52 62 74 39 25 37 47 44 42 44 50 54 55 58 62 59 61 53 43 38 36 33 30 27 26 26 25 26 28 26 28 25 29 32 34 34 32 32
62 70 64 65 69 53 56 70 39 31 44 52 49 50 54 57 58 60 60 67 62 50 50 40 39 35 30 28 26 22 20 20 21 22 26 25 24 24 23 23 33 32 29
66 66 65 61 64 41 49 54 25 29 51 56 56 61 62 65 56 61 66 62 66 51 44 44 39 31 29 25 21 20 19 18 16 16 23 24 25 25 20 27 28 25 30
71 67 56 52 44 40 44 36 32 19 50 60 67 69 70 59 56 65 62 55 50 48 49 39 32 27 23 23 22 21 18 16 16 15 20 23 27 25 20 28 28 32 31
73 54 47 42 41 44 43 34 22 20 36 64 71 69 67 61 61 61 58 55 54 46 40 34 29 24 22 21 18 16 14 13 19 21 22 22 26 24 22 25 34 29 31
63 53 50 42 45 38 38 31 39 40 20 59 68 71 59 63 66 63 57 52 45 41 38 32 28 27 24 19 17 17 14 14 17 20 24 22 20 24 26 28 27 28 29
65 53 49 45 37 27 34 32 49 49 22 58 64 62 66 66 60 62 57 50 44 42 38 32 30 30 25 22 21 22 17 15 19 22 27 26 28 34 33 27 22 16 19
63 51 43 36 24 9 16 38 57 53 57 72 70 71 67 63 62 48 51 47 46 42 37 33 32 29 28 25 25 24 20 21 26 29 32 33 34 36 32 28 20 16 16
59 48 43 34 25 21 38 42 77 51 77 68 65 65 60 62 59 52 48 41 38 35 33 24 19 21 26 24 17 7 18 27 31 35 35 41 39 36 32 26 19 14 17
52 42 16 26 23 13 45 65 75 78 70 64 57 61 59 65 56 48 47 41 37 34 22 16 13 14 17 23 17 16 21 31 34 36 41 38 35 28 27 22 15 15 17
Wind_Direction_850mb
323 321 323 327 318 269 252 239 243 243 232 225 229 241 245 247 249 239 250 257 258 260 263 270 272 277 283 283 279 267 263 263 259 254 258 263 253 246 252 251 267 277 274
317 323 321 312 314 310 265 261 249 248 241 236 240 235 237 243 244 242 247 257 260 260 262 267 269 277 278 279 271 262 257 259 250 249 258 261 256 250 251 260 269 275 269
310 311 313 310 303 303 307 285 267 254 249 247 237 230 234 238 238 240 246 250 252 258 262 264 268 270 266 271 267 258 253 260 252 245 237 234 235 243 259 270 267 266 266
302 302 301 299 291 289 291 296 281 261 247 246 232 231 235 238 247 248 248 249 252 261 263 263 264 256 255 264 261 253 250 252 247 244 240 240 252 253 258 267 248 273 276
308 302 300 297 291 291 292 289 293 269 250 244 237 238 238 243 247 247 245 246 253 258 262 261 256 255 249 258 250 244 247 246 241 240 243 245 249 254 251 261 279 283 285
316 320 309 298 291 289 284 280 285 278 259 248 248 240 238 242 242 238 240 245 250 255 263 261 257 248 243 248 246 241 237 235 241 243 247 251 243 253 258 261 267 277 278
320 317 317 312 301 295 288 279 281 282 263 258 244 243 237 242 239 235 243 248 252 258 270 265 250 236 241 244 240 239 224 228 235 240 249 248 248 251 257 257 265 270 279
319 326 322 311 303 298 290 284 275 276 260 259 243 232 231 232 234 241 250 255 255 260 269 260 242 237 241 240 229 219 222 227 231 240 247 240 238 253 256 261 259 267 273
317 317 319 305 300 296 292 288 277 272 256 244 243 230 228 234 242 249 253 254 252 253 250 239 237 236 244 247 210 223 226 219 225 239 237 237 240 247 251 250 256 266 262
314 317 314 299 302 299 301 290 275 270 249 233 235 231 237 242 248 251 252 254 248 243 232 231 229 235 236 224 215 225 210 217 222 228 234 239 246 248 244 247 256 243 253
314 321 322 306 310 324 319 304 277 264 248 234 230 234 236 244 246 248 251 248 236 233 225 225 229 228 216 204 214 208 208 212 223 232 237 241 241 239 241 246 240 245 247
308 329 330 312 313 333 331 318 277 265 244 232 232 235 240 240 239 236 234 228 227 222 222 223 219 206 199 205 207 201 206 219 231 234 236 229 231 232 237 246 238 240 234
318 336 328 317 312 340 338 329 284 267 239 233 224 224 225 226 223 223 226 220 218 218 216 214 203 195 195 197 194 206 220 230 228 231 229 227 232 234 238 238 236 228 225
327 332 328 324 308 348 346 339 301 261 230 230 224 213 216 216 215 225 220 210 214 207 204 192 187 188 189 196 206 210 203 207 225 232 229 231 234 234 235 230 229 219 221
348 333 320 329 322 344 347 336 320 278 247 227 213 210 205 205 216 208 199 196 199 194 184 180 184 183 182 185 188 200 215 227 234 237 237 237 236 234 228 224 223 216 212
330 320 315 333 333 344 344 342 318 284 237 213 199 195 198 204 197 183 186 187 181 178 174 171 179 179 187 199 205 222 234 235 246 249 243 237 232 227 219 219 219 217 213
323 317 316 324 337 329 337 335 314 259 206 208 212 214 214 200 189 187 180 176 178 169 168 169 179 190 197 199 217 223 237 245 244 241 228 216 224 222 221 222 223 212 212
317 315 310 316 331 325 325 322 300 274 214 219 217 217 204 185 178 179 178 172 166 173 168 177 187 186 195 209 220 230 231 230 233 231 212 220 219 226 213 210 197 203 204
304 302 306 312 322 312 321 312 275 241 205 209 211 205 189 168 163 169 169 171 165 169 176 180 183 197 206 216 219 216 213 223 222 218 202 201 198 192 196 178 178 186 189
302 308 307 305 310 311 309 289 247 310 198 199 201 188 169 163 166 163 164 167 168 170 174 178 185 199 213 203 204 201 217 215 209 185 165 173 182 184 184 182 185 186 187
306 307 303 300 306 302 290 260 235 145 187 203 192 175 163 158 164 165 165 164 166 170 175 183 190 197 192 199 194 193 198 191 195 179 171 171 174 179 179 183 177 184 176
304 310 313 312 309 308 276 248 207 145 157 167 175 157 159 161 164 162 164 168 178 182 182 187 187 185 185 192 178 168 162 168 184 179 173 166 169 166 156 155 161 178 187
303 308 311 307 323 320 262 222 183 203 215 165 152 154 160 160 164 166 167 177 183 186 185 187 191 185 182 182 177 178 178 172 185 176 171 167 159 146 150 153 164 189 185
298 304 311 321 316 337 183 165 173 170 160 162 153 157 163 165 166 174 178 182 185 188 186 188 189 187 182 176 173 183 187 182 179 174 169 164 164 160 161 159 165 167 179
294 302 312 312 304 277 268 160 179 179 168 159 163 165 169 170 170 175 182 189 190 187 182 185 178 181 183 170 173 198 175 175 172 177 164 161 158 157 164 167 171 182 194
297 301 297 279 290 92 157 165 171 168 166 166 167 169 173 172 175 181 179 182 180 180 177 158 131 136 162 164 170 162 159 157 160 164 167 160 166 167 172 179 188 182 188